RYR8MJ LIPZ-LICC

Flight info

Callsign RYR8MJ
Flight time 1h 19m
Altitude 37000
Route CHI DCT ALAXI DCT AMANO DCT VAKOR DCT PELEN DCT UXUTA
Aircraft B738/M-SDE2E3FGHIRWXY/LB1

Departure

Time 2026-04-30 18:51
Airport Venice Marco Polo Airport (LIPZ)

Arrival

Time 2026-04-30 20:10
Airport Catania-Fontanarossa Airport (LICC)
Time Latitude Longitude Altitude Speed Heading
2026-04-30 18:33 45.50752 12.34008 15 ft 0 kts 224°
2026-04-30 18:39 45.50763 12.34022 15 ft 2 kts 217°
2026-04-30 18:39 45.50777 12.34035 15 ft 2 kts 201°
2026-04-30 18:40 45.50793 12.34037 15 ft 2 kts 156°
2026-04-30 18:40 45.50805 12.34025 19 ft 1 kts 133°
2026-04-30 18:40 45.50807 12.34023 17 ft 0 kts 133°
2026-04-30 18:45 45.50603 12.34396 15 ft 9 kts 132°
2026-04-30 18:45 45.50563 12.34459 15 ft 8 kts 132°
2026-04-30 18:45 45.50525 12.34519 15 ft 8 kts 132°
2026-04-30 18:46 45.50481 12.34568 15 ft 8 kts 173°
2026-04-30 18:46 45.50426 12.34522 16 ft 12 kts 222°
2026-04-30 18:46 45.50334 12.34402 15 ft 24 kts 222°
2026-04-30 18:46 45.50187 12.34215 15 ft 30 kts 221°
2026-04-30 18:47 45.50034 12.34018 14 ft 26 kts 223°
2026-04-30 18:47 45.49931 12.33884 15 ft 11 kts 222°
2026-04-30 18:47 45.49872 12.33810 15 ft 11 kts 220°
2026-04-30 18:47 45.49814 12.33739 15 ft 11 kts 221°
2026-04-30 18:48 45.49757 12.33669 15 ft 11 kts 217°
2026-04-30 18:48 45.49712 12.33632 15 ft 5 kts 209°
2026-04-30 18:48 45.49677 12.33604 15 ft 7 kts 209°
2026-04-30 18:48 45.49634 12.33553 15 ft 9 kts 223°
2026-04-30 18:49 45.49579 12.33511 15 ft 9 kts 171°
2026-04-30 18:49 45.49534 12.33562 15 ft 8 kts 135°
2026-04-30 18:49 45.49497 12.33619 15 ft 8 kts 132°
2026-04-30 18:49 45.49461 12.33676 15 ft 8 kts 131°
2026-04-30 18:50 45.49422 12.33746 14 ft 10 kts 110°
2026-04-30 18:50 45.49455 12.33827 14 ft 13 kts 43°
2026-04-30 18:50 45.49684 12.34124 13 ft 83 kts 42°
2026-04-30 18:50 45.50292 12.34901 15 ft 149 kts 41°
2026-04-30 18:51 45.51132 12.35941 569 ft 159 kts 44°
2026-04-30 18:51 45.51844 12.37049 1607 ft 141 kts 53°
2026-04-30 18:51 45.52543 12.38098 2304 ft 153 kts 49°
2026-04-30 18:51 45.53335 12.39172 2968 ft 165 kts 46°
2026-04-30 18:52 45.53855 12.40705 3268 ft 191 kts 91°
2026-04-30 18:52 45.53598 12.42618 3798 ft 202 kts 101°
2026-04-30 18:52 45.53323 12.44623 4431 ft 209 kts 99°
2026-04-30 18:52 45.53079 12.46684 5248 ft 211 kts 98°
2026-04-30 18:53 45.52842 12.48764 6124 ft 215 kts 101°
2026-04-30 18:53 45.52078 12.50720 6537 ft 248 kts 137°
2026-04-30 18:53 45.50427 12.51755 7032 ft 274 kts 173°
2026-04-30 18:53 45.48502 12.51444 7814 ft 286 kts 195°
2026-04-30 18:54 45.46601 12.50479 8674 ft 293 kts 201°
2026-04-30 18:54 45.44700 12.49345 9563 ft 300 kts 203°
2026-04-30 18:54 45.42757 12.48165 10415 ft 306 kts 204°
2026-04-30 18:54 45.40734 12.46955 10854 ft 328 kts 203°
2026-04-30 18:55 45.38564 12.45687 11379 ft 344 kts 202°
2026-04-30 18:55 45.34052 12.43117 13062 ft 353 kts 202°
2026-04-30 18:55 45.31752 12.41825 13904 ft 359 kts 202°
2026-04-30 18:56 45.27039 12.39195 15416 ft 368 kts 202°
2026-04-30 18:56 45.24640 12.37861 16169 ft 373 kts 202°
2026-04-30 18:56 45.22213 12.36512 16928 ft 377 kts 202°
2026-04-30 18:57 45.17254 12.33760 18394 ft 388 kts 202°
2026-04-30 18:57 45.14731 12.32361 19060 ft 392 kts 202°
2026-04-30 18:57 45.12177 12.30947 19734 ft 395 kts 202°
2026-04-30 18:58 45.06839 12.28937 21045 ft 404 kts 183°
2026-04-30 18:58 45.04023 12.29086 21691 ft 407 kts 170°
2026-04-30 18:58 45.01245 12.29912 22298 ft 411 kts 166°
2026-04-30 18:59 44.95628 12.31879 23461 ft 420 kts 165°
2026-04-30 19:00 44.87031 12.34892 25035 ft 431 kts 166°
2026-04-30 19:00 44.84107 12.35889 25529 ft 434 kts 166°
2026-04-30 19:00 44.78182 12.37884 26482 ft 441 kts 166°
2026-04-30 19:01 44.72162 12.39897 27403 ft 448 kts 166°
2026-04-30 19:01 44.69120 12.40912 27874 ft 451 kts 166°
2026-04-30 19:02 44.62973 12.42960 28752 ft 457 kts 166°
2026-04-30 19:02 44.56747 12.45032 29586 ft 463 kts 167°
2026-04-30 19:03 44.50424 12.47130 30368 ft 470 kts 167°
2026-04-30 19:03 44.44021 12.49250 30969 ft 476 kts 167°
2026-04-30 19:04 44.37541 12.51392 31578 ft 481 kts 167°
2026-04-30 19:04 44.30998 12.53550 32253 ft 484 kts 167°
2026-04-30 19:05 44.24507 12.55686 33114 ft 481 kts 167°
2026-04-30 19:05 44.17994 12.57824 33871 ft 481 kts 168°
2026-04-30 19:06 44.11470 12.59960 34569 ft 480 kts 168°
2026-04-30 19:06 44.08216 12.61025 34894 ft 480 kts 168°
2026-04-30 19:06 44.01708 12.63148 35493 ft 480 kts 168°
2026-04-30 19:07 43.95216 12.65263 36101 ft 479 kts 168°
2026-04-30 19:07 43.91969 12.66318 36401 ft 479 kts 168°
2026-04-30 19:08 43.85475 12.68426 36916 ft 479 kts 168°
2026-04-30 19:08 43.79029 12.70513 37293 ft 479 kts 168°
2026-04-30 19:09 43.69333 12.73645 37285 ft 475 kts 168°
2026-04-30 19:09 43.62900 12.75717 37289 ft 473 kts 169°
2026-04-30 19:10 43.50115 12.79821 37282 ft 470 kts 169°
2026-04-30 19:11 43.41651 12.82528 37272 ft 468 kts 169°
2026-04-30 19:12 43.35309 12.84551 37269 ft 468 kts 170°
2026-04-30 19:12 43.27930 12.86899 37251 ft 468 kts 170°
2026-04-30 19:13 43.16254 12.90603 37237 ft 470 kts 171°
2026-04-30 19:14 43.09872 12.92621 37251 ft 470 kts 171°
2026-04-30 19:14 43.03542 12.94620 37258 ft 470 kts 171°
2026-04-30 19:15 42.97157 12.96631 37249 ft 471 kts 171°
2026-04-30 19:15 42.87565 12.99644 37253 ft 472 kts 171°
2026-04-30 19:16 42.81165 13.01649 37240 ft 472 kts 171°
2026-04-30 19:17 42.71549 13.04653 37214 ft 472 kts 171°
2026-04-30 19:17 42.61948 13.07644 37200 ft 472 kts 171°
2026-04-30 19:18 42.52337 13.10628 37181 ft 472 kts 172°
2026-04-30 19:19 42.45927 13.12613 37170 ft 472 kts 172°
2026-04-30 19:19 42.36373 13.15564 37162 ft 471 kts 172°
2026-04-30 19:20 42.29984 13.17532 37191 ft 470 kts 172°
2026-04-30 19:21 42.20418 13.20471 37203 ft 470 kts 172°
2026-04-30 19:22 42.07673 13.24374 37204 ft 470 kts 172°
2026-04-30 19:23 41.88574 13.30192 37167 ft 468 kts 173°
2026-04-30 19:24 41.79039 13.33083 37151 ft 469 kts 173°
2026-04-30 19:25 41.63089 13.36960 37152 ft 464 kts 178°
2026-04-30 19:26 41.50318 13.39403 37160 ft 466 kts 178°
2026-04-30 19:27 41.40683 13.41319 37153 ft 468 kts 178°
2026-04-30 19:28 41.31024 13.43243 37156 ft 468 kts 178°
2026-04-30 19:29 41.18147 13.45795 37143 ft 467 kts 178°
2026-04-30 19:30 41.05307 13.48327 37139 ft 466 kts 179°
2026-04-30 19:31 40.92484 13.50847 37140 ft 465 kts 179°
2026-04-30 19:31 40.82883 13.52726 37141 ft 465 kts 179°
2026-04-30 19:32 40.76488 13.53975 37138 ft 464 kts 179°
2026-04-30 19:32 40.70137 13.55213 37139 ft 464 kts 179°
2026-04-30 19:33 40.63749 13.56456 37141 ft 464 kts 179°
2026-04-30 19:33 40.57351 13.57698 37137 ft 464 kts 179°
2026-04-30 19:34 40.50953 13.58938 37138 ft 464 kts 179°
2026-04-30 19:35 40.41357 13.60793 37135 ft 465 kts 179°
2026-04-30 19:35 40.34958 13.62028 37132 ft 465 kts 179°
2026-04-30 19:36 40.28545 13.63262 37136 ft 466 kts 179°
2026-04-30 19:36 40.18921 13.65110 37124 ft 466 kts 180°
2026-04-30 19:37 40.12492 13.66342 37127 ft 467 kts 180°
2026-04-30 19:37 40.06107 13.67563 37126 ft 467 kts 180°
2026-04-30 19:38 39.99675 13.68791 37122 ft 467 kts 180°
2026-04-30 19:38 39.93240 13.70017 37117 ft 467 kts 180°
2026-04-30 19:39 39.86805 13.71241 37114 ft 467 kts 180°
2026-04-30 19:39 39.80377 13.72461 37111 ft 467 kts 180°
2026-04-30 19:40 39.73951 13.73679 37114 ft 466 kts 180°
2026-04-30 19:40 39.67530 13.74893 37113 ft 466 kts 180°
2026-04-30 19:41 39.61116 13.76103 37111 ft 465 kts 180°
2026-04-30 19:41 39.54708 13.77310 37107 ft 465 kts 180°
2026-04-30 19:42 39.48303 13.78515 37102 ft 464 kts 180°
2026-04-30 19:42 39.41921 13.79992 37090 ft 473 kts 171°
2026-04-30 19:43 39.35785 13.83366 37104 ft 482 kts 161°
2026-04-30 19:44 39.26781 13.89071 36902 ft 485 kts 161°
2026-04-30 19:44 39.23740 13.90960 36412 ft 484 kts 161°
2026-04-30 19:44 39.20703 13.92831 35898 ft 482 kts 161°
2026-04-30 19:44 39.17665 13.94688 35326 ft 483 kts 162°
2026-04-30 19:45 39.14628 13.96539 34771 ft 483 kts 162°
2026-04-30 19:45 39.11598 13.98383 34288 ft 481 kts 162°
2026-04-30 19:45 39.08568 14.00225 33651 ft 482 kts 162°
2026-04-30 19:45 39.05537 14.02068 33145 ft 479 kts 162°
2026-04-30 19:46 39.02530 14.03898 32675 ft 476 kts 161°
2026-04-30 19:46 38.99541 14.05714 32226 ft 472 kts 161°
2026-04-30 19:46 38.96584 14.07510 31779 ft 469 kts 161°
2026-04-30 19:46 38.93642 14.09294 31344 ft 465 kts 161°
2026-04-30 19:47 38.90722 14.11062 30922 ft 462 kts 161°
2026-04-30 19:47 38.88800 14.12225 30639 ft 460 kts 161°
2026-04-30 19:47 38.84988 14.14530 30070 ft 456 kts 161°
2026-04-30 19:47 38.82124 14.16259 29572 ft 452 kts 161°
2026-04-30 19:48 38.79284 14.17972 29082 ft 449 kts 161°
2026-04-30 19:48 38.76474 14.19666 28656 ft 444 kts 161°
2026-04-30 19:48 38.73688 14.21343 28207 ft 440 kts 161°
2026-04-30 19:48 38.70929 14.23002 27774 ft 437 kts 161°
2026-04-30 19:49 38.68190 14.24647 27337 ft 433 kts 161°
2026-04-30 19:49 38.62768 14.27901 26494 ft 427 kts 160°
2026-04-30 19:49 38.60091 14.29505 26074 ft 424 kts 160°
2026-04-30 19:50 38.57428 14.31099 25658 ft 421 kts 160°
2026-04-30 19:50 38.54782 14.32682 25240 ft 419 kts 160°
2026-04-30 19:50 38.52143 14.34260 24836 ft 417 kts 160°
2026-04-30 19:50 38.49524 14.35824 24425 ft 415 kts 160°
2026-04-30 19:51 38.46911 14.37383 23995 ft 414 kts 160°
2026-04-30 19:51 38.44311 14.38934 23558 ft 412 kts 160°
2026-04-30 19:51 38.41714 14.40483 23087 ft 410 kts 160°
2026-04-30 19:51 38.39135 14.42020 22643 ft 407 kts 160°
2026-04-30 19:52 38.36583 14.43539 22222 ft 404 kts 160°
2026-04-30 19:52 38.34042 14.45050 21821 ft 401 kts 160°
2026-04-30 19:52 38.31524 14.46547 21415 ft 398 kts 159°
2026-04-30 19:52 38.29026 14.48030 21006 ft 395 kts 159°
2026-04-30 19:53 38.26575 14.49485 20608 ft 392 kts 159°
2026-04-30 19:53 38.24110 14.50946 20209 ft 390 kts 159°
2026-04-30 19:53 38.21658 14.52400 19811 ft 387 kts 159°
2026-04-30 19:53 38.19219 14.53844 19417 ft 385 kts 159°
2026-04-30 19:54 38.16797 14.55278 19008 ft 383 kts 159°
2026-04-30 19:54 38.14386 14.56704 18631 ft 381 kts 159°
2026-04-30 19:54 38.11982 14.58124 18204 ft 380 kts 159°
2026-04-30 19:54 38.09593 14.59535 17767 ft 377 kts 159°
2026-04-30 19:55 38.07218 14.60937 17368 ft 375 kts 159°
2026-04-30 19:55 38.04864 14.62326 16963 ft 372 kts 158°
2026-04-30 19:55 38.02522 14.63707 16571 ft 370 kts 158°
2026-04-30 19:55 38.00194 14.65078 16182 ft 368 kts 158°
2026-04-30 19:56 37.97876 14.66443 15798 ft 366 kts 158°
2026-04-30 19:56 37.95563 14.67797 15402 ft 364 kts 159°
2026-04-30 19:56 37.93174 14.68734 15023 ft 357 kts 173°
2026-04-30 19:56 37.90712 14.68944 14528 ft 353 kts 186°
2026-04-30 19:57 37.88246 14.68807 13958 ft 357 kts 187°
2026-04-30 19:57 37.85766 14.68632 13410 ft 357 kts 187°
2026-04-30 19:57 37.83308 14.68460 12884 ft 349 kts 187°
2026-04-30 19:57 37.80917 14.68301 12390 ft 340 kts 186°
2026-04-30 19:58 37.78636 14.68157 12202 ft 323 kts 186°
2026-04-30 19:58 37.76443 14.68024 11930 ft 310 kts 186°
2026-04-30 19:58 37.74299 14.67894 11393 ft 308 kts 186°
2026-04-30 19:58 37.72165 14.67763 10873 ft 307 kts 186°
2026-04-30 19:59 37.70042 14.67635 10393 ft 304 kts 186°
2026-04-30 19:59 37.68351 14.67534 10003 ft 301 kts 186°
2026-04-30 19:59 37.64135 14.67284 8972 ft 295 kts 185°
2026-04-30 20:00 37.62757 14.67203 8628 ft 293 kts 185°
2026-04-30 20:00 37.60732 14.67084 8145 ft 290 kts 185°
2026-04-30 20:00 37.58747 14.66967 7666 ft 288 kts 185°
2026-04-30 20:00 37.56759 14.66850 7186 ft 285 kts 184°
2026-04-30 20:01 37.52835 14.66620 6245 ft 280 kts 184°
2026-04-30 20:01 37.50916 14.66508 5965 ft 270 kts 184°
2026-04-30 20:01 37.49080 14.66401 5718 ft 260 kts 184°
2026-04-30 20:02 37.45528 14.66323 5169 ft 245 kts 166°
2026-04-30 20:02 37.44150 14.67384 4988 ft 236 kts 126°
2026-04-30 20:03 37.43763 14.71139 4579 ft 214 kts 82°
2026-04-30 20:03 37.43924 14.72970 4366 ft 206 kts 83°
2026-04-30 20:03 37.44068 14.74725 4183 ft 197 kts 83°
2026-04-30 20:03 37.44203 14.76402 3988 ft 189 kts 83°
2026-04-30 20:04 37.44334 14.78012 3810 ft 181 kts 84°
2026-04-30 20:04 37.44458 14.79552 3650 ft 174 kts 84°
2026-04-30 20:04 37.44578 14.81035 3490 ft 167 kts 84°
2026-04-30 20:05 37.44810 14.83900 3202 ft 161 kts 84°
2026-04-30 20:05 37.44922 14.85289 3164 ft 160 kts 84°
2026-04-30 20:05 37.45153 14.88120 2757 ft 160 kts 84°
2026-04-30 20:06 37.45262 14.89463 2530 ft 148 kts 84°
2026-04-30 20:06 37.45364 14.90710 2354 ft 140 kts 83°
2026-04-30 20:06 37.45464 14.91933 2200 ft 141 kts 84°
2026-04-30 20:06 37.45564 14.93155 1983 ft 139 kts 84°
2026-04-30 20:07 37.45662 14.94345 1794 ft 134 kts 84°
2026-04-30 20:07 37.45757 14.95504 1618 ft 133 kts 84°
2026-04-30 20:07 37.45950 14.97881 1255 ft 136 kts 85°
2026-04-30 20:08 37.46012 14.99074 1095 ft 137 kts 85°
2026-04-30 20:08 37.46176 15.00272 879 ft 139 kts 79°
2026-04-30 20:08 37.46255 15.01465 746 ft 135 kts 84°
2026-04-30 20:08 37.46316 15.02656 485 ft 137 kts 82°
2026-04-30 20:09 37.46438 15.03820 317 ft 131 kts 81°
2026-04-30 20:09 37.46536 15.04952 160 ft 133 kts 81°
2026-04-30 20:09 37.46699 15.06867 51 ft 57 kts 84°
2026-04-30 20:10 37.46767 15.07555 49 ft 29 kts 72°
2026-04-30 20:10 37.46846 15.07757 51 ft 20 kts 54°
2026-04-30 20:10 37.46908 15.07800 51 ft 10 kts 329°
2026-04-30 20:11 37.46928 15.07637 51 ft 10 kts 265°
2026-04-30 20:11 37.46920 15.07554 48 ft 9 kts 262°
2026-04-30 20:11 37.46911 15.07461 51 ft 13 kts 264°
2026-04-30 20:12 37.46886 15.07129 50 ft 23 kts 263°
2026-04-30 20:12 37.46868 15.06922 50 ft 23 kts 264°
2026-04-30 20:12 37.46852 15.06736 50 ft 20 kts 264°
2026-04-30 20:13 37.46837 15.06561 50 ft 20 kts 264°
2026-04-30 20:13 37.46823 15.06393 50 ft 19 kts 263°
2026-04-30 20:13 37.46811 15.06253 50 ft 12 kts 263°
2026-04-30 20:13 37.46806 15.06165 50 ft 6 kts 281°
2026-04-30 20:14 37.46844 15.06146 48 ft 6 kts 354°
2026-04-30 20:14 37.46876 15.06142 50 ft 0 kts 353°
2026-04-30 20:14 37.46879 15.06142 50 ft 0 kts 353°